Погода в Урицке

Погода в Урицке : погода сейчас, прогноз погоды и архив. Всё, что Вы хотите узнать о погоде в Урицке!

Поиск расширенной информации на нашем сайте:

Другие новости

Новости СМИ2

Главная страница сайта

Новости сайта

02.10.2013

Напоминаем, что на нашем новом сайте вы можете получить высокодетализированные прогнозы погоды по пунктам России, СНГ и мира (включающие важные для авиации метеовеличины, такие как направление и скорость ветра, видимость, явления погоды, количество и форма облачности, нижняя и верхняя граница облачности), а также ознакомиться с разнообразными материалами по авиационной метеорологии и подборкой полезных ссылок на эту тему.

Сайт Метеоцентр.Азия посвящён разработке технологий оптимизации авиаметеорологического обслуживания, включая проектирование и перспективное создание нескольких автоматизированных авиаметеорологических систем:
- система выпуска высокодетальных прогностических карт явлений погоды для нижнего воздушного пространства по России и ближнему зарубежью;
- система верификации прогнозов TAF (выпускаемых синоптиками официальных АМСГ РФ и ближнего зарубежья) и AUTOTAF (выпускаемых сайтом Метеоцентр.Азия) - выявление ошибок, онлайн-сопоставление с фактической погодой METAR, автоматическое внесение коррективов в прогнозы при резком отклонении фактической погоды от прогноза, подсчёт оправдываемости прогнозов по элементам и в целом;
- система обработки, анализа и отображения авиаметеорологической информации для применения провайдерами метеорологической информации.


Погода в Урицке - сегодня

Время (UTC), дата Ветер
(°,м/с) 
Видим.   Явления Облачность Т
(°С)
Тd
(°С)
f(%) Тe
(°С)
Pmin
(гПа)
dP
(гПа)
Po
(мм)
O2
(г/м3)
Тmin Tmax R s Состояние
почвы
15 22.05.17 240 (ЮЗ) 20000 м    8/8 1000 м 
[Cu med, cong]
+24.1 +13.7 52 +31  998.1  -0.8  730  268    +28.2       
18 22.05.17 270 (З) н/о    8/8 600 м 
[Cu med, cong]
+20 +11.5 58 +24  997.8  -0.7  730  272    +28.2       
21 22.05.17 360 (С) н/о    8/8 600 м 
[Cu med, cong]
+17.2 +10 63 +19  994.9  -3  728  274           
00 23.05.17 020 (С) 20000 м    5/5 600 м 
[Sc]
+15 +9.4 69 +15  991.8  -3.2  725  275           
03 23.05.17 040 (СВ) 20000 м    8/8 600 м 
[Sc]
+14.6 +9.5 71 +15  990.3  -1.5  724  275           
06 23.05.17 360 (С) 20000 м  {гроза, ливн. осадки}  5/5 600 м 
[Cu med, cong]
+18.6 +12.5 68 +25  988.3  -1.7  723  270  +14.4         
09 23.05.17 290 (З) 19-19{23}  4000 м  ливневой дождь  10/10 600 м кучево-дожд. 
[Cb calv]
+10.2 +5.5 73 +7  993.6  4.4  726  281           
12 23.05.17 270 (З) 15-15{19}  10 км  слаб. ливневой дождь  10/10 600 м кучево-дожд. 
[Cb calv]
+7.7 +3.2 73 +4  1000.9  731  286           
15 23.05.17 280 (З) 20000 м  {ливн. осадки}  10/10 600 м 
[Sc]
+7.2 +3.2 76 +5  1004.8  3.7  734  288    +18.9     
18 23.05.17 300 (СЗ) н/о  {ливн. осадки}  10/10 600 м 
[Sc]
+6 +2.1 76 +4  1006.4  1.5  735  290    +18.9     
21 23.05.17 300 (СЗ) н/о  слаб. ливневой дождь  10/10 300 м кучево-дожд. 
[Cb calv]
+5.4 +1.9 78 +4  1007.1  0.6  736  290           
00 24.05.17 290 (З) 20000 м  {ливн. осадки}  10/10 600 м 
[Sc]
+4.6 +1.3 79 +3  1007.8  0.6  736  291           
06 24.05.17 280 (З) 20000 м  {ливн. осадки}  9/9 600 м 
[Cu med, cong]
+7 +3.4 78 +5  1012.5  2.4  740  290  +4.4    0.9     
09 24.05.17 240 (ЮЗ) 20000 м    6/6 600 м 
[Cu med, cong]
+9.6 +5 73 +7  1013.5  1.2  741  287           
12 24.05.17 270 (З) 10  20000 м    8/8 600 м 
[Cu med, cong]
+12.2 +6.8 70 +10  1013.6  0.3  741  285           
15 24.05.17 260 (З) 20000 м    5/5 600 м 
[Cu med, cong]
+11.3 +6.2 71 +10  1014.1  0.4  741  286    +12.6  0.5     
18 24.05.17 220 (ЮЗ) н/о    6/6 600 м 
[Sc]
+8.9 +4.3 73 +9  1015.3  1.1  742  289    +12.6  0.5     
21 24.05.17 230 (ЮЗ) н/о    ясно 
+5.7 +1.7 75 +5  1016.4  0.6  742  293           
00 25.05.17 210 (ЮЗ) 20000 м    5/5 600 м 
[Sc]
+4.6 +1.1 78 +3  1016.7  0.2  743  294           
03 25.05.17 220 (ЮЗ) 20000 м    3/3 600 м 
[Sc]
+11.3 +6.2 71 +10  1016.6  0.6  743  286           
06 25.05.17 260 (З) 20000 м    4/4 600 м 
[Cu med, cong]
+17.6 +10.3 62 +19  1016.1  0.1  743  279  +4.4         
09 25.05.17 290 (З) 20000 м    6/6 600 м 
[Cu med, cong]
+18.6 +9.8 57 +19  1016.4  0.4  743  279           
12 25.05.17 260 (З) 20000 м    8/8 1000 м 
[Cu med, cong]
+21.4 +11.3 53 +25  1016  -0.2  743  276           
15 25.05.17 280 (З) 20000 м    3/3 1000 м 
[Cu med, cong]
+19.9 +9.7 52 +22  1016.2  0.1  743  277    +21.8       
18 25.05.17 060 (СВ) н/о    ясно 
+13.3 +5.6 60 +14  1018.8  1.8  745  285    +21.8       
Время (UTC), дата Ветер
(°,м/с) 
Видим.   Явления Облачность Т
(°С)
Тd
(°С)
f(%) Тe
(°С)
Pmin
(гПа)
dP
(гПа)
Po
(мм)
O2
(г/м3)
Тmin Tmax R s Состояние
почвы

Для получения пояснительной информации подведите курсор к названию столбца.

ПОГОДА в Урицке - архив

Всё, что Вы хотите узнать о погоде в Урицке - удобно и подробно!

Выберите нужную дату (начиная с 1 января 2015* года) и нажмите кнопку "Найти".
Будут отображены архивные сводки погоды по пункту Урицк, начиная с указанной даты.


Отображать данные в формате CSV (для использования в таблицах Excel)


Внимание! Наш архив погоды предназначен исключительно для личного некоммерческого использования в познавательных целях. Если Вам необходимы официальные справки о состоянии погоды (для производственных, юридических, коммерческих и т.п. целей), обращайтесь в органы Росгидромета.

*Примечание: данная дата относится к архиву по метеостанциям СССР (Россия, СНГ, Балтия).
Архив по метеостанциям Зарубежной Европы и Азии (кроме Китая) хранится 10 дней, по другим регионам земного шара (Китай, Африка, Америка, Австралия, Океания) - 1 день.

Урицк - район местоположения метеостанции


Название, широта, долгота, высота метеостанции:
Урицк 53.3°ш. 65.6°д. 216 м над ур. моря [Казахстан]

Дополнительная информация

В oтличие oт бoльшинства пoгoдных сайтoв мы публикуем пoдрoбную метеoинфoрмацию в детальнoм прoфессиoнальнoм фoрмате.

Характеристики температуры и влажнoсти вoздуха измеряются на высoте 2 м в тени вдали oт зданий и деревьев.
Скoрoсть ветра измеряется на высoте 10 м (на урoвне рoста челoвека скoрoсть ветра ниже в 1.5-2 раза). Если метеoстанция нахoдится в гoрoде или в лесу, тo скoрoсть ветра занижена на 2-4 м/с пo сравнению с oткрытым местoм. Скoрoсть ветра над акватoриями крупных рек и oзёр, а также на вершинах хoлмoв на 2-5 м/с выше, чем в oбычных услoвиях.
Атмoсфернoе давление в разных тoчках местнoсти мoжет значительнo oтличаться oт давления на метеoстанции, в зависимoсти oт услoвий рельефа (при пoдъёме на 10 м давление пoнижается примернo на 1 мм рт.ст.).